Handytankers Miracle — V7OM4 — position and weather

sailwx.info

Track history (hours):
 
Tides and Currents Weather Stations Pressure Air Temp Water Temp Dewpoint Dewpoint Depression Visibility Wind Speed Wind Dir Waves Ship Positions

Handytankers Miracle

Last reported at 2017-Apr-30 18:16 UTC. Time now 2017-May-29 13:15 UTC.
Position N 01°58' E 102°13'.
Warning: this ship's position is 28 days out of date.

Length 183 m; draft 7.3 m.

Type: Tanker. MMSI: 538003114.

Date/timePositionNaut miles runAvg speedWind from/ knotsBaromVisibWave heightAir tempDewpointWater temp
2017-Apr-30 18:16N 01°58' E 102°13'610.7
2017-Apr-30 17:41N 01°55' E 102°18'210.4
2017-Apr-30 17:30N 01°54' E 102°20'510.3
2017-Apr-30 17:00N 01°52' E 102°25'5 9.9
2017-Apr-30 16:29N 01°50' E 102°29'5 9.6
2017-Apr-30 16:00N 01°48' E 102°34'5410.7
2017-Apr-30 10:55N 01°18' E 103°19'611.7
2017-Apr-30 10:26N 01°14' E 103°24'511.3
2017-Apr-30 10:00N 01°13' E 103°28'510.9
2017-Apr-30 09:30N 01°12' E 103°34'510.8
2017-Apr-30 09:00N 01°11' E 103°39'510.3
2017-Apr-30 08:30N 01°08' E 103°43'611.2
2017-Apr-30 07:59N 01°11' E 103°48'611.6
2017-Apr-30 07:31N 01°13' E 103°54'611.4
2017-Apr-30 07:00N 01°15' E 103°59'2511.7
2017-Apr-30 04:53N 01°21' E 104°23'  
2017-Apr-23 23:28N 01°15' E 104°03'610.6
2017-Apr-23 22:56N 01°14' E 103°57'510.6
2017-Apr-23 22:30N 01°12' E 103°53'3 6.5
2017-Apr-23 22:00N 01°12' E 103°50'2 4.6
2017-Apr-23 21:29N 01°14' E 103°48'0 0.0
2017-Apr-23 20:59N 01°14' E 103°48'0 0.0
2017-Apr-23 20:29N 01°14' E 103°48'0 0.0
2017-Apr-23 19:56N 01°14' E 103°48'0 0.0
2017-Apr-23 19:29N 01°14' E 103°48'0 0.1
2017-Apr-23 18:53N 01°14' E 103°48'0 0.2
2017-Apr-23 18:29N 01°14' E 103°48'0 0.0
2017-Apr-23 17:59N 01°14' E 103°48'0 0.0
2017-Apr-23 17:26N 01°14' E 103°48'0 0.0
2017-Apr-23 16:59N 01°14' E 103°48'0 0.0
2017-Apr-23 16:29N 01°14' E 103°48'0 0.1
2017-Apr-23 15:56N 01°14' E 103°48'0 0.0
2017-Apr-23 15:29N 01°14' E 103°48'0 0.0
2017-Apr-23 14:59N 01°14' E 103°48'0 0.1
2017-Apr-23 13:59N 01°14' E 103°48'0 0.0
2017-Apr-23 13:26N 01°14' E 103°48'0 0.0
2017-Apr-23 12:59N 01°14' E 103°48'0 0.1
2017-Apr-23 12:29N 01°14' E 103°48'0 0.1
2017-Apr-23 11:59N 01°14' E 103°48'0 0.1
2017-Apr-23 11:26N 01°14' E 103°48'0 0.0
2017-Apr-23 10:53N 01°14' E 103°48'0 0.2
2017-Apr-23 10:29N 01°14' E 103°48'0 0.1
2017-Apr-23 09:59N 01°14' E 103°48'0 0.0
2017-Apr-23 09:29N 01°14' E 103°48'0 0.1
2017-Apr-23 08:59N 01°14' E 103°49'0 0.0
2017-Apr-23 08:26N 01°14' E 103°49'0 0.0
2017-Apr-23 07:56N 01°14' E 103°49'0 0.0
2017-Apr-23 07:29N 01°14' E 103°49'0 0.0
2017-Apr-23 06:56N 01°14' E 103°49'0 0.0
2017-Apr-23 06:29N 01°14' E 103°49'0 0.0
2017-Apr-23 05:59N 01°14' E 103°49'0 0.0
2017-Apr-23 05:29N 01°14' E 103°49'0 0.0
2017-Apr-23 04:53N 01°14' E 103°49'0 0.0
2017-Apr-23 04:29N 01°14' E 103°49'0 0.0
2017-Apr-23 03:56N 01°14' E 103°49'0 0.0
2017-Apr-23 03:29N 01°14' E 103°49'0 0.0
2017-Apr-23 02:59N 01°14' E 103°49'0 0.0
2017-Apr-23 02:23N 01°14' E 103°49'0 0.0
2017-Apr-23 01:59N 01°14' E 103°49'0 0.0
2017-Apr-23 01:29N 01°14' E 103°49'0 0.0
2017-Apr-23 00:59N 01°14' E 103°49'0 0.0
2017-Apr-23 00:29N 01°14' E 103°49'0 0.0
2017-Apr-23 00:00N 01°14' E 103°49'4 7.3
2017-Apr-22 23:30N 01°13' E 103°52'612.2
2017-Apr-22 23:00N 01°15' E 103°58'4 7.4
2017-Apr-22 22:30N 01°16' E 104°01'22 6.8
2017-Apr-22 19:19N 01°21' E 104°22'  
Track history (hours):
 
Tides and Currents Weather Stations Pressure Air Temp Water Temp Dewpoint Dewpoint Depression Visibility Wind Speed Wind Dir Waves Ship Positions

Handytankers Miracle

Last reported at 2017-Apr-30 18:16 UTC. Time now 2017-May-29 13:15 UTC.
Position N 01°58' E 102°13'.
Warning: this ship's position is 28 days out of date.

Length 183 m; draft 7.3 m.

Type: Tanker. MMSI: 538003114.

Date/timePositionNaut miles runAvg speedWind from/ knotsBaromVisibWave heightAir tempDewpointWater temp
2017-Apr-30 18:16N 01°58' E 102°13'610.7
2017-Apr-30 17:41N 01°55' E 102°18'210.4
2017-Apr-30 17:30N 01°54' E 102°20'510.3
2017-Apr-30 17:00N 01°52' E 102°25'5 9.9
2017-Apr-30 16:29N 01°50' E 102°29'5 9.6
2017-Apr-30 16:00N 01°48' E 102°34'5410.7
2017-Apr-30 10:55N 01°18' E 103°19'611.7
2017-Apr-30 10:26N 01°14' E 103°24'511.3
2017-Apr-30 10:00N 01°13' E 103°28'510.9
2017-Apr-30 09:30N 01°12' E 103°34'510.8
2017-Apr-30 09:00N 01°11' E 103°39'510.3
2017-Apr-30 08:30N 01°08' E 103°43'611.2
2017-Apr-30 07:59N 01°11' E 103°48'611.6
2017-Apr-30 07:31N 01°13' E 103°54'611.4
2017-Apr-30 07:00N 01°15' E 103°59'2511.7
2017-Apr-30 04:53N 01°21' E 104°23'  
2017-Apr-23 23:28N 01°15' E 104°03'610.6
2017-Apr-23 22:56N 01°14' E 103°57'510.6
2017-Apr-23 22:30N 01°12' E 103°53'3 6.5
2017-Apr-23 22:00N 01°12' E 103°50'2 4.6
2017-Apr-23 21:29N 01°14' E 103°48'0 0.0
2017-Apr-23 20:59N 01°14' E 103°48'0 0.0
2017-Apr-23 20:29N 01°14' E 103°48'0 0.0
2017-Apr-23 19:56N 01°14' E 103°48'0 0.0
2017-Apr-23 19:29N 01°14' E 103°48'0 0.1
2017-Apr-23 18:53N 01°14' E 103°48'0 0.2
2017-Apr-23 18:29N 01°14' E 103°48'0 0.0
2017-Apr-23 17:59N 01°14' E 103°48'0 0.0
2017-Apr-23 17:26N 01°14' E 103°48'0 0.0
2017-Apr-23 16:59N 01°14' E 103°48'0 0.0
2017-Apr-23 16:29N 01°14' E 103°48'0 0.1
2017-Apr-23 15:56N 01°14' E 103°48'0 0.0
2017-Apr-23 15:29N 01°14' E 103°48'0 0.0
2017-Apr-23 14:59N 01°14' E 103°48'0 0.1
2017-Apr-23 13:59N 01°14' E 103°48'0 0.0
2017-Apr-23 13:26N 01°14' E 103°48'0 0.0
2017-Apr-23 12:59N 01°14' E 103°48'0 0.1
2017-Apr-23 12:29N 01°14' E 103°48'0 0.1
2017-Apr-23 11:59N 01°14' E 103°48'0 0.1
2017-Apr-23 11:26N 01°14' E 103°48'0 0.0
2017-Apr-23 10:53N 01°14' E 103°48'0 0.2
2017-Apr-23 10:29N 01°14' E 103°48'0 0.1
2017-Apr-23 09:59N 01°14' E 103°48'0 0.0
2017-Apr-23 09:29N 01°14' E 103°48'0 0.1
2017-Apr-23 08:59N 01°14' E 103°49'0 0.0
2017-Apr-23 08:26N 01°14' E 103°49'0 0.0
2017-Apr-23 07:56N 01°14' E 103°49'0 0.0
2017-Apr-23 07:29N 01°14' E 103°49'0 0.0
2017-Apr-23 06:56N 01°14' E 103°49'0 0.0
2017-Apr-23 06:29N 01°14' E 103°49'0 0.0
2017-Apr-23 05:59N 01°14' E 103°49'0 0.0
2017-Apr-23 05:29N 01°14' E 103°49'0 0.0
2017-Apr-23 04:53N 01°14' E 103°49'0 0.0
2017-Apr-23 04:29N 01°14' E 103°49'0 0.0
2017-Apr-23 03:56N 01°14' E 103°49'0 0.0
2017-Apr-23 03:29N 01°14' E 103°49'0 0.0
2017-Apr-23 02:59N 01°14' E 103°49'0 0.0
2017-Apr-23 02:23N 01°14' E 103°49'0 0.0
2017-Apr-23 01:59N 01°14' E 103°49'0 0.0
2017-Apr-23 01:29N 01°14' E 103°49'0 0.0
2017-Apr-23 00:59N 01°14' E 103°49'0 0.0
2017-Apr-23 00:29N 01°14' E 103°49'0 0.0
2017-Apr-23 00:00N 01°14' E 103°49'4 7.3
2017-Apr-22 23:30N 01°13' E 103°52'612.2
2017-Apr-22 23:00N 01°15' E 103°58'4 7.4
2017-Apr-22 22:30N 01°16' E 104°01'22 6.8
2017-Apr-22 19:19N 01°21' E 104°22'  

Dump ship's entire track history